Weather History for Hyannis, MA

Change the Weather History Date:

Friday, July 6, 2012

  Actual Average Record
Temperature  
Mean Temperature 73 °F -  
Max Temperature 82 °F 76 °F 95 °F (1999)
Min Temperature 64 °F 59 °F 44 °F (1963)
Cooling Degree Days 8    
Growing Degree Days 23 (Base 50)    
Moisture  
Dew Point 65 °F    
Average Humidity 74    
Maximum Humidity 93    
Minimum Humidity 56    
Precipitation  
Precipitation 0.00 in - - ()
Sea Level Pressure  
Sea Level Pressure 29.86 in    
Wind  
Wind Speed 5 mph (WSW)    
Max Wind Speed 14 mph    
Max Gust Speed -    
Visibility 10 miles    
Events      
Averages and records for this station are not official NWS values.
T = Trace of Precipitation, MM = Missing Value Source: NWS Daily Summary

Daily Weather History Graph

Daily Weather History Graph

Search for Another Location

Airport:

Trip Planner

Search our weather history database for the weather conditions in past years. The results will help you decide how hot, cold, wet, or windy it might be!

Date:

Astronomy

Jul. 06, 2012 Rise Set
Actual Time 5:13 AM EDT 8:18 PM EDT
Civil Twilight 4:39 AM EDT 8:51 PM EDT
Nautical Twilight 3:56 AM EDT 9:34 PM EDT
Astronomical Twilight 3:05 AM EDT 10:25 PM EDT
Moon 10:01 PM EDT (7/6) 8:32 AM EDT (7/6)
Length of Visible Light 16h 11m
Length of Day
15h 04m
Waning Gibbous, 89% of the Moon is Illuminated
Jul 6
Waning Gibbous
Jul 10
Last Quarter
Jul 19
New
Jul 26
First Quarter
Aug 1
Full

Hourly Weather History & Observations

Time (EDT) Temp. Heat Index Dew Point Humidity Pressure Visibility Wind Dir Wind Speed Gust Speed Precip Events Conditions
12:56 AM 64.0 °F - 62.1 °F 93% 29.85 in 10.0 mi Calm Calm - N/A   Clear
1:56 AM 66.9 °F - 64.0 °F 90% 29.84 in 10.0 mi West 5.8 mph - N/A   Partly Cloudy
2:56 AM 68.0 °F - 64.9 °F 90% 29.84 in 10.0 mi Calm Calm - N/A   Clear
3:56 AM 68.0 °F - 64.9 °F 90% 29.84 in 10.0 mi West 5.8 mph - N/A   Clear
4:56 AM 66.9 °F - 64.0 °F 90% 29.85 in 10.0 mi Calm Calm - N/A   Clear
5:56 AM 66.0 °F - 63.0 °F 90% 29.86 in 10.0 mi Calm Calm - N/A   Clear
6:56 AM 71.1 °F - 64.9 °F 81% 29.88 in 10.0 mi NW 4.6 mph - N/A   Clear
7:56 AM 73.9 °F - 64.0 °F 71% 29.89 in 10.0 mi NNW 8.1 mph - N/A   Clear
8:56 AM 75.0 °F - 64.9 °F 71% 29.89 in 10.0 mi NNW 5.8 mph - N/A   Clear
9:56 AM 77.0 °F - 64.9 °F 66% 29.88 in 10.0 mi Variable 5.8 mph - N/A   Clear
10:56 AM 78.1 °F - 64.9 °F 64% 29.89 in 10.0 mi North 8.1 mph - N/A   Clear
11:56 AM 80.1 °F 82.1 °F 66.0 °F 62% 29.88 in 10.0 mi NNE 6.9 mph - N/A   Clear
12:56 PM 82.0 °F 84.5 °F 66.9 °F 60% 29.88 in 10.0 mi NE 6.9 mph - N/A   Clear
1:56 PM 81.0 °F 83.3 °F 66.9 °F 62% 29.88 in 10.0 mi Variable 5.8 mph - N/A   Mostly Cloudy
2:56 PM 81.0 °F 82.7 °F 64.9 °F 58% 29.85 in 10.0 mi SSW 8.1 mph - N/A   Clear
3:56 PM 81.0 °F 82.5 °F 64.0 °F 56% 29.86 in 10.0 mi SSW 6.9 mph - N/A   Clear
4:56 PM 79.0 °F - 64.0 °F 60% 29.84 in 10.0 mi South 6.9 mph - N/A   Clear
5:56 PM 81.0 °F 82.7 °F 64.9 °F 58% 29.84 in 10.0 mi SW 12.7 mph - N/A   Clear
6:56 PM 78.1 °F - 66.9 °F 68% 29.84 in 10.0 mi SW 6.9 mph - N/A   Clear
7:56 PM 75.0 °F - 66.9 °F 76% 29.85 in 10.0 mi SW 8.1 mph - N/A   Clear
8:56 PM 73.4 °F - 66.2 °F 78% 29.86 in 10.0 mi SW 10.4 mph - N/A   Clear
9:56 PM 73.9 °F - 69.1 °F 85% 29.86 in 10.0 mi SW 13.8 mph - N/A   Clear
10:56 PM 73.0 °F - 69.1 °F 87% 29.86 in 10.0 mi SW 9.2 mph - N/A   Clear
11:56 PM 73.9 °F - 66.9 °F 79% 29.85 in 10.0 mi SW 8.1 mph - N/A   Clear